Location: Poughquag
(41.6090°N, 73.6820°W)
Time: 02:58:24
(UTC-04:00)

Vanguard 1 Rocket - Pass Details

Date: 04 June 2020
Orbit: 653 x 4224 km, 34.3° (Epoch: 06 July)

Event Time Altitude Azimuth Distance (km) Brightness Sun altitude
Rises 05:33:29 0° 278° (W) 6,266 11.2 1.1°
Reaches altitude 10° 05:38:55 10° 270° (W) 4,603 10.5 2.0°
Maximum altitude 05:48:11 30° 216° (SW) 2,241 9.0 3.5°
Drops below altitude 10° 05:53:50 10° 156° (SSE) 2,733 9.9 4.4°
Sets 05:56:13 0° 145° (SE) 3,424 10.5 4.8°
